Voltar ao catálogo

STARLINK-32155

AtivoComunicaçõesVLEO
NORAD 60274·PAYLOAD·🇺🇸 United States

Lançado Jul 27, 2024 de Cape Canaveral Space Force Station

Loading…

Próximas Passagens (próximas 24 horas)

TLE

AtualizadoSource: CelesTrak SupGP

Época: Sep 14, 2026, 22:18 UTC

1 60274C 24131V   26257.92965278  .00036148  00000+0  11624-2 0  2574
2 60274  53.1583 252.3455 0001391  85.1433  50.7975 15.31684633    14

Acompanhe STARLINK-32155 em tempo real com AllMySat

Download on the App Store